GW5991 Weather Reports


Display with metric or nautical units.
time (UTC)temp
F
wind
direction
speed
MPH
gust
MPH
rain 1hr
in
rain 24hr
in
rain mn
in
humidity
%
barometer
mb
20260506230155 53 199 0.0 0.0 0.00 0.09 0.09 67 1022.6
20260506225651 53 180 0.0 0.0 0.00 0.09 0.09 70 1022.7
20260506225148 52 251 0.0 0.0 0.00 0.09 0.09 68 1022.7
20260506224645 51 247 0.0 0.0 0.00 0.09 0.09 68 1022.8
20260506224141 51 215 0.0 0.0 0.00 0.09 0.09 68 1022.7
20260506223638 52 346 0.0 0.0 0.00 0.09 0.09 73 1022.5
20260506223134 51 184 0.0 0.0 0.00 0.09 0.09 70 1022.6
20260506222631 52 267 0.0 0.0 0.00 0.09 0.09 69 1022.4
20260506222127 52 153 0.0 0.0 0.00 0.09 0.09 69 1022.6
20260506221625 52 82 0.0 0.0 0.00 0.09 0.09 69 1022.5
20260506221123 53 263 0.0 0.0 0.00 0.09 0.09 67 1022.5
20260506220619 52 3 0.0 0.0 0.00 0.09 0.09 69 1022.6
20260506220114 52 47 0.0 0.0 0.00 0.09 0.09 68 1022.6
20260506215611 52 322 0.0 0.0 0.00 0.09 0.09 73 1022.6
20260506215107 51 301 0.0 0.0 0.00 0.09 0.09 75 1022.4
20260506214604 51 46 0.0 0.0 0.00 0.09 0.09 75 1022.4
20260506214101 51 114 0.0 0.0 0.00 0.09 0.09 75 1022.3
20260506213559 50 189 0.0 0.0 0.00 0.09 0.09 82 1022.4
20260506213056 50 352 0.0 0.0 0.00 0.09 0.09 87 1022.4
20260506212553 49 76 0.0 0.0 0.00 0.09 0.09 88 1022.4
20260506212048 49 49 0.0 0.0 0.00 0.09 0.09 86 1022.4
20260506211544 49 203 0.0 0.0 0.00 0.09 0.09 83 1022.5
20260506211041 49 215 0.0 0.0 0.00 0.09 0.09 83 1022.5
20260506210538 49 52 0.0 0.0 0.00 0.09 0.09 88 1022.3
20260506210035 49 58 0.0 0.0 0.00 0.09 0.09 87 1022.5
20260506205531 49 61 0.0 0.0 0.00 0.09 0.09 87 1022.3
20260506205026 49 61 0.0 0.0 0.00 0.09 0.09 89 1022.1
20260506204525 49 61 0.0 0.0 0.00 0.09 0.09 88 1022.1
20260506204021 49 61 0.0 0.0 0.00 0.09 0.09 89 1022.1
20260506203520 49 48 0.0 0.0 0.05 0.09 0.09 90 1022.2
20260506203016 49 92 0.0 0.0 0.05 0.09 0.09 86 1022.1
20260506202513 49 242 0.0 0.0 0.07 0.08 0.08 87 1022.2
20260506202009 50 221 0.0 0.0 0.12 0.08 0.08 84 1022.1
20260506201508 50 218 0.0 0.0 0.05 0.07 0.07 82 1022.0
20260506201004 51 57 0.0 0.0 0.00 0.06 0.06 72 1022.2
20260506200500 52 91 0.0 0.0 0.00 0.06 0.06 75 1022.0
20260506195956 52 60 0.0 0.0 0.00 0.06 0.06 70 1022.0
20260506195454 53 123 0.0 0.0 0.00 0.06 0.06 68 1022.1
20260506194950 54 13 0.0 0.0 0.00 0.06 0.06 67 1022.0
20260506194448 53 164 0.0 0.0 0.00 0.06 0.06 72 1021.9
20260506193944 53 346 0.0 0.0 0.00 0.06 0.06 69 1021.9
20260506193441 53 194 0.0 0.0 0.00 0.06 0.06 68 1022.1
20260506192938 51 27 0.0 0.0 0.00 0.06 0.06 71 1021.6
20260506192435 51 310 0.0 0.0 0.00 0.06 0.06 72 1021.7
20260506191932 50 181 0.0 0.0 0.00 0.06 0.06 75 1021.6
20260506191428 50 19 0.0 0.0 0.00 0.06 0.06 79 1021.8
20260506190925 49 263 0.0 0.0 0.00 0.06 0.06 80 1021.6
20260506190422 49 286 0.0 0.0 0.00 0.06 0.06 83 1021.6
20260506185918 49 130 0.0 0.0 0.00 0.06 0.06 79 1021.5
20260506185416 49 172 0.0 0.0 0.00 0.06 0.06 77 1021.5
20260506184913 49 193 0.0 0.0 0.00 0.06 0.06 77 1021.5
20260506184410 50 268 0.0 0.0 0.00 0.06 0.06 75 1021.7
20260506183907 50 145 0.0 0.0 0.00 0.06 0.06 75 1021.6
20260506183402 50 214 0.0 0.0 0.00 0.06 0.06 76 1021.4
20260506182859 50 189 0.0 0.0 0.00 0.06 0.06 77 1021.6
20260506182356 49 292 0.0 0.0 0.00 0.06 0.06 79 1021.7
20260506181854 49 307 0.0 0.0 0.00 0.06 0.06 77 1021.7
20260506181352 50 263 0.0 0.0 0.00 0.06 0.06 79 1021.7
20260506180849 49 250 0.0 0.0 0.00 0.06 0.06 82 1021.9
20260506180344 49 5 0.0 0.0 0.00 0.06 0.06 81 1021.7
20260506175841 49 319 0.0 0.0 0.00 0.06 0.06 83 1021.6
20260506175338 48 11 0.0 0.0 0.00 0.06 0.06 88 1021.7
20260506174835 48 342 0.0 0.0 0.00 0.06 0.06 90 1021.8
20260506174332 47 124 0.0 0.0 0.00 0.06 0.06 85 1021.7
20260506173830 47 101 0.0 0.0 0.00 0.06 0.06 86 1021.8
20260506173327 47 89 0.0 0.0 0.00 0.06 0.06 86 1021.9
20260506172824 47 95 0.0 0.0 0.00 0.06 0.06 90 1021.7
20260506172320 47 95 0.0 0.0 0.00 0.06 0.06 89 1021.8
20260506171818 46 279 0.0 0.0 0.00 0.06 0.06 90 1021.8
20260506171315 47 15 0.0 0.0 0.00 0.06 0.06 89 1022.0
20260506170813 46 178 0.0 0.0 0.00 0.06 0.06 90 1021.9
20260506170308 46 60 0.0 0.0 0.00 0.06 0.06 89 1021.8
20260506165807 46 253 0.0 0.0 0.00 0.06 0.06 90 1021.7
20260506165305 46 349 0.0 0.0 0.00 0.06 0.06 91 1021.7
20260506164801 46 121 0.0 0.0 0.00 0.06 0.06 89 1021.7
20260506164258 46 1 0.0 0.0 0.00 0.06 0.06 90 1022.0
20260506163755 46 279 0.0 0.0 0.00 0.06 0.06 91 1021.7
20260506163249 46 78 0.0 0.0 0.00 0.06 0.06 92 1021.7
20260506162746 46 83 0.0 0.0 0.00 0.06 0.06 93 1021.6
20260506162244 46 40 0.0 0.0 0.00 0.06 0.06 93 1022.0
20260506161736 45 327 0.0 0.0 0.00 0.06 0.06 90 1021.5
20260506161232 45 219 0.0 0.0 0.00 0.06 0.06 92 1021.5
20260506160729 46 246 0.0 0.0 0.00 0.06 0.06 90 1021.5
20260506160226 46 338 0.0 0.0 0.00 0.06 0.06 92 1021.4
20260506155725 46 333 0.0 0.0 0.00 0.06 0.06 92 1021.4
20260506155222 46 289 0.0 0.0 0.00 0.06 0.06 93 1021.4
20260506153329 45 272 0.0 0.0 0.00 0.06 0.06 94 1021.3
20260506152826 45 256 0.0 0.0 0.00 0.06 0.06 94 1021.1
20260506152323 45 10 0.0 0.0 0.00 0.06 0.06 94 1021.2
20260506151822 45 85 0.0 0.0 0.00 0.06 0.06 94 1021.1
20260506151318 45 184 0.0 0.0 0.00 0.06 0.06 95 1021.2
20260506150815 44 328 0.0 0.0 0.00 0.06 0.06 95 1021.1
20260506150312 44 70 0.0 0.0 0.00 0.06 0.06 95 1020.9
20260506145809 44 91 0.0 0.0 0.00 0.06 0.06 95 1021.0
20260506145306 44 173 0.0 0.0 0.00 0.06 0.06 95 1020.9
20260506144803 44 192 0.0 0.0 0.00 0.06 0.06 96 1020.9
20260506144259 44 181 0.0 0.0 0.00 0.06 0.06 95 1021.0
20260506143757 44 91 0.0 0.0 0.00 0.06 0.06 95 1020.9
20260506143254 44 64 0.0 0.0 0.00 0.06 0.06 95 1020.9
20260506142753 44 48 0.0 0.0 0.00 0.06 0.06 95 1021.0
20260506142250 44 223 0.0 0.0 0.00 0.06 0.06 96 1021.0
20260506141748 44 164 0.0 0.0 0.00 0.06 0.06 96 1020.7
20260506141246 43 141 0.0 0.0 0.07 0.06 0.06 96 1020.7
20260506140743 43 322 0.0 0.0 0.07 0.06 0.06 96 1020.8
20260506140240 43 92 0.0 0.0 0.00 0.05 0.05 96 1020.8
20260506135737 43 122 0.0 0.0 0.00 0.05 0.05 96 1020.6
20260506135233 43 230 0.0 0.0 0.00 0.05 0.05 96 1020.6
20260506134730 43 80 0.0 0.0 0.00 0.05 0.05 96 1020.6
20260506134227 43 149 0.0 0.0 0.00 0.05 0.05 96 1020.6
20260506133724 43 327 0.0 0.0 0.00 0.05 0.05 96 1020.7
20260506133221 43 330 0.0 0.0 0.00 0.05 0.05 96 1020.6
20260506132718 43 277 0.0 0.0 0.00 0.05 0.05 96 1020.6
20260506132215 44 174 0.0 0.0 0.00 0.05 0.05 96 1020.4
20260506131713 44 194 0.0 0.0 0.05 0.05 0.05 96 1020.4
20260506131208 43 336 0.0 0.0 0.05 0.05 0.05 95 1020.4
20260506130705 44 89 0.0 0.0 0.00 0.04 0.04 95 1020.4
20260506130202 43 299 0.0 0.0 0.07 0.04 0.04 95 1020.4
20260506125700 44 9 0.0 0.0 0.07 0.04 0.04 95 1020.3
20260506125158 44 109 0.0 0.0 0.00 0.03 0.03 95 1020.3
20260506124656 44 145 0.0 0.0 0.07 0.03 0.03 95 1020.2
20260506124154 44 246 0.0 0.0 0.07 0.03 0.03 95 1020.2
20260506123651 44 244 0.0 0.0 0.00 0.02 0.02 95 1020.1
20260506123149 44 87 0.0 0.0 0.00 0.02 0.02 94 1020.1
20260506122646 44 110 0.0 0.0 0.00 0.02 0.02 94 1020.2
20260506122143 44 261 0.0 0.0 0.00 0.02 0.02 94 1020.1
20260506121641 44 119 0.0 0.0 0.00 0.02 0.02 94 1020.0
20260506121137 44 140 0.0 0.0 0.00 0.02 0.02 94 1020.0
20260506120635 44 310 0.0 0.0 0.00 0.02 0.02 94 1019.9
20260506120132 44 278 0.0 0.0 0.05 0.02 0.02 94 1019.8
20260506115631 44 317 0.0 0.0 0.05 0.02 0.02 93 1019.8
20260506115129 44 201 0.0 0.0 0.07 0.01 0.01 92 1019.8
20260506114625 44 52 0.0 0.0 0.07 0.01 0.01 92 1019.8
20260506114124 44 329 0.0 0.0 0.00 0.00 0.00 91 1019.7
20260506113622 45 356 0.0 0.0 0.00 0.00 0.00 91 1019.6
20260506113119 45 146 0.0 0.0 0.00 0.00 0.00 89 1019.8
20260506112615 45 41 0.0 0.0 0.00 0.00 0.00 89 1019.7
20260506112112 45 62 0.0 0.0 0.00 0.00 0.00 88 1019.6
20260506111610 45 206 0.0 0.0 0.00 0.00 0.00 87 1019.6
20260506111108 46 357 0.0 0.0 0.00 0.00 0.00 86 1019.5
20260506110605 46 272 0.0 0.0 0.00 0.00 0.00 85 1019.5
20260506105558 46 260 0.0 0.0 0.00 0.00 0.00 86 1019.5
20260506105055 46 147 0.0 0.0 0.00 0.00 0.00 85 1019.5
20260506104554 46 8 0.0 0.0 0.00 0.00 0.00 85 1019.5
20260506104051 46 263 0.0 0.0 0.00 0.00 0.00 86 1019.5
20260506103548 46 43 0.0 0.0 0.00 0.00 0.00 86 1019.7
20260506103044 45 28 0.0 0.0 0.00 0.00 0.00 86 1019.4
20260506102543 45 73 0.0 0.0 0.00 0.00 0.00 88 1019.5
20260506102040 45 311 0.0 0.0 0.00 0.00 0.00 89 1019.4
20260506101537 45 312 0.0 0.0 0.00 0.00 0.00 89 1019.3
20260506101034 45 312 0.0 0.0 0.00 0.00 0.00 89 1019.3
20260506100532 45 312 0.0 0.0 0.00 0.00 0.00 89 1019.3
20260506100030 45 313 0.0 0.0 0.00 0.00 0.00 89 1019.3
20260506095528 45 313 0.0 0.0 0.00 0.00 0.00 88 1019.4
20260506095024 45 313 0.0 0.0 0.00 0.00 0.00 88 1019.4
20260506094522 45 313 0.0 0.0 0.00 0.00 0.00 88 1019.1
20260506094020 45 313 0.0 0.0 0.00 0.00 0.00 88 1019.2
20260506093518 45 157 0.0 0.0 0.00 0.00 0.00 88 1019.1
20260506093015 45 321 0.0 0.0 0.00 0.00 0.00 88 1019.0
20260506092513 45 336 0.0 0.0 0.00 0.00 0.00 88 1018.9
20260506092009 45 6 0.0 0.0 0.00 0.00 0.00 88 1019.0
20260506091508 45 26 0.0 0.0 0.00 0.00 0.00 88 1018.9
20260506091004 45 153 0.0 0.0 0.00 0.00 0.00 88 1018.8
20260506090503 45 203 0.0 0.0 0.00 0.00 0.00 88 1018.9
20260506085958 45 203 0.0 0.0 0.00 0.00 0.00 88 1018.8
20260506085455 45 204 0.0 0.0 0.00 0.00 0.00 88 1018.8
20260506084952 45 208 0.0 0.0 0.00 0.00 0.00 89 1018.9
20260506084449 45 208 0.0 0.0 0.00 0.00 0.00 89 1018.8
20260506083945 45 208 0.0 0.0 0.00 0.00 0.00 88 1019.0
20260506083442 45 208 0.0 0.0 0.00 0.00 0.00 88 1018.8
20260506082939 45 208 0.0 0.0 0.00 0.00 0.00 88 1018.8
20260506082436 45 208 0.0 0.0 0.00 0.00 0.00 88 1018.8
20260506081932 45 209 0.0 0.0 0.00 0.00 0.00 88 1018.6
20260506081431 45 209 0.0 0.0 0.00 0.00 0.00 87 1018.8
20260506080927 45 172 0.0 0.0 0.00 0.00 0.00 86 1018.6
20260506080424 45 117 0.0 0.0 0.00 0.00 0.00 86 1018.5
20260506073408 44 215 0.0 0.0 0.00 0.00 0.00 87 1018.7
20260506072905 44 222 0.0 0.0 0.00 0.00 0.00 88 1018.6
20260506072402 44 222 0.0 0.0 0.00 0.00 0.00 88 1018.7
20260506071900 44 222 0.0 0.0 0.00 0.00 0.00 88 1018.8
20260506071358 44 222 0.0 0.0 0.00 0.00 0.00 88 1018.8
20260506070854 44 222 0.0 0.0 0.00 0.00 0.00 87 1018.8
20260506070352 44 223 0.0 0.0 0.00 0.00 0.00 87 1018.7
20260506062329 44 210 0.0 0.0 0.00 0.00 0.00 86 1018.5
20260506061825 44 210 0.0 0.0 0.00 0.00 0.00 85 1018.6
20260506061322 44 210 0.0 0.0 0.00 0.00 0.00 85 1018.6
20260506060820 44 210 0.0 0.0 0.00 0.00 0.00 84 1018.6
20260506060318 45 210 0.0 0.0 0.00 0.00 0.00 83 1018.5
20260506051249 46 258 0.0 0.0 0.00 0.00 0.00 79 1018.5
20260506050747 46 300 0.0 0.0 0.00 0.00 0.00 79 1018.6
20260506050244 47 137 0.0 0.0 0.00 0.00 0.00 80 1018.2
20260506044735 47 323 0.0 0.0 0.00 0.00 0.00 77 1018.2
20260506044232 47 155 0.0 0.0 0.00 0.00 0.00 77 1018.1
20260506043730 48 180 0.0 0.0 0.00 0.00 0.00 77 1018.1
20260506043227 48 91 0.0 0.0 0.00 0.00 0.00 75 1017.9
20260506042726 48 329 0.0 0.0 0.00 0.00 0.00 75 1017.9
20260506042224 48 196 0.0 0.0 0.00 0.00 0.00 75 1017.7
20260506041722 48 49 0.0 0.0 0.00 0.00 0.00 74 1017.7
20260506041219 48 203 0.0 0.0 0.00 0.00 0.00 73 1017.7
20260506040716 49 75 0.0 0.0 0.00 0.00 0.00 72 1017.8
20260506040213 49 124 0.0 0.0 0.00 0.00 0.00 71 1017.6
20260506035709 49 2 0.0 0.0 0.00 0.00 0.00 71 1017.6
20260506035207 49 2 0.0 0.0 0.00 0.00 0.00 70 1017.4
20260506034703 49 319 0.0 0.0 0.00 0.00 0.00 71 1017.3
20260506034201 50 124 0.0 0.0 0.00 0.00 0.00 70 1017.3
20260506033658 50 351 0.0 0.0 0.00 0.00 0.00 69 1017.3
20260506033155 50 195 0.0 0.0 0.00 0.00 0.00 69 1017.4
20260506032652 50 34 0.0 0.0 0.00 0.00 0.00 68 1017.3
20260506032149 50 170 0.0 0.0 0.00 0.00 0.00 68 1017.2
20260506031645 50 349 0.0 0.0 0.00 0.00 0.00 68 1017.3
20260506031142 51 236 0.0 0.0 0.00 0.00 0.00 67 1017.1
20260506030641 51 196 0.0 0.0 0.00 0.00 0.00 67 1017.1
20260506030138 51 301 0.0 0.0 0.00 0.00 0.00 66 1017.0
20260506025635 51 175 0.0 1.0 0.00 0.00 0.00 65 1017.0
20260506025130 51 216 0.0 0.0 0.00 0.00 0.00 65 1017.1
20260506024628 52 329 0.0 0.0 0.00 0.00 0.00 64 1016.8
20260506024124 52 247 0.0 0.0 0.00 0.00 0.00 64 1016.8
20260506023621 52 207 0.0 0.0 0.00 0.00 0.00 64 1016.7
20260506023118 52 112 0.0 0.0 0.00 0.00 0.00 64 1016.8
20260506022615 52 27 0.0 0.0 0.00 0.00 0.00 63 1016.7
20260506022112 52 15 0.0 0.0 0.00 0.00 0.00 61 1016.5
20260506021610 52 202 0.0 1.0 0.00 0.00 0.00 61 1016.5
20260506021107 53 242 0.0 0.0 0.00 0.00 0.00 61 1016.5
20260506020604 53 356 0.0 0.0 0.00 0.00 0.00 60 1016.5
20260506015559 53 153 0.0 1.0 0.00 0.00 0.00 60 1016.3
20260506015056 53 312 0.0 0.0 0.00 0.00 0.00 60 1016.4
20260506014554 54 327 0.0 0.0 0.00 0.00 0.00 58 1016.1
20260506014049 54 268 0.0 1.0 0.00 0.00 0.00 58 1016.1
20260506013548 54 258 0.0 0.0 0.00 0.00 0.00 58 1016.2
20260506013044 54 228 0.0 0.0 0.00 0.00 0.00 58 1016.0
20260506012540 55 182 0.0 1.0 0.00 0.00 0.00 57 1015.8
20260506012037 55 153 0.0 1.0 0.00 0.00 0.00 58 1015.9
20260506011535 55 200 0.0 0.0 0.00 0.00 0.00 57 1015.7
20260506011031 55 259 0.0 0.0 0.00 0.00 0.00 55 1015.8
20260506010530 56 38 0.0 0.0 0.00 0.00 0.00 55 1015.9
20260506010026 56 75 0.0 1.0 0.00 0.00 0.00 55 1015.9
20260506005523 56 356 0.0 0.0 0.00 0.00 0.00 56 1015.9
20260506005019 57 130 0.0 0.0 0.00 0.00 0.00 54 1015.8
20260506004517 57 74 0.0 0.0 0.00 0.00 0.00 51 1015.8
20260506004013 57 335 0.0 0.0 0.00 0.00 0.00 53 1015.9
20260506003510 57 343 0.0 0.0 0.00 0.00 0.00 50 1015.7
20260506003006 57 168 0.0 0.0 0.00 0.00 0.00 48 1015.7
20260506002502 57 237 0.0 0.0 0.00 0.00 0.00 50 1015.8
20260506001957 57 210 0.0 0.0 0.00 0.00 0.00 50 1015.7
20260506001454 57 160 0.0 0.0 0.00 0.00 0.00 48 1015.7
20260506000952 59 111 0.0 1.0 0.00 0.00 0.00 47 1015.7
20260506000449 59 92 0.0 0.0 0.00 0.00 0.00 48 1015.5
20260505235946 59 86 0.0 0.0 0.00 0.00 0.00 46 1015.6
20260505235444 58 303 0.0 0.0 0.00 0.00 0.00 47 1015.6
20260505234941 58 309 1.0 2.0 0.00 0.00 0.00 46 1015.5
20260505234438 58 182 0.0 0.0 0.00 0.00 0.00 48 1015.5
20260505233934 59 130 0.0 0.0 0.00 0.00 0.00 49 1015.5
20260505233432 60 302 0.0 1.0 0.00 0.00 0.00 45 1015.3
20260505232930 61 256 0.0 1.0 0.00 0.00 0.00 44 1015.3
20260505232428 63 252 0.0 0.0 0.00 0.00 0.00 41 1015.3
20260505231924 62 1 0.0 0.0 0.00 0.00 0.00 44 1015.6
20260505231422 61 98 0.0 0.0 0.00 0.00 0.00 45 1015.5
20260505230920 61 45 0.0 0.0 0.00 0.00 0.00 48 1015.4
20260505230417 61 150 0.0 0.0 0.00 0.00 0.00 47 1015.3